Home > Weather > Racine > Past weeks

Flag for USA Past Weather in Racine, Wisconsin, USA — Yesterday and Last 2 Weeks

Now
83 °F

Sunny.


Feels Like: 83 °F
Forecast: 68 / 83 °F
Wind: 9 mph from Southeast

Location: Batten International Airport

Current Time: Jul 26, 2016 at 2:52:44 PM

Latest Report: Jul 26, 2016 at 1:53 PM


Visibility: 10 mi

Pressure: 30.05 "Hg

Humidity: 48%

Dew Point: 61 °F

Location of RacineLocation

Past Weather in Racine — Graph

°F

Racine Temperature Yesterday

Maximum temperature yesterday: 85 °F (at 12:53 PM)
Minimum temperature yesterday: 72 °F (at 5:53 AM)
Average temperature yesterday: 78 °F

High & Low Weather Summary for the Past Weeks

 TemperatureHumidityPressure
High92 °F (Jul 21, 3:53 PM)94% (Jul 20, 3:53 AM)30.27 "Hg (Jul 20, 3:53 AM)
Low57 °F (Jul 16, 4:53 AM)29% (Jul 14, 2:53 PM)29.71 "Hg (Jul 13, 6:53 PM)
Average76 °F70%29.99 "Hg
* Reported Jul 11 12:53 PM — Jul 26 12:53 PM, Racine, Weather by CustomWeather, © 2016

Note: Actual official high and low records may vary slightly from our data, if they occured in-between our weather recording intervals... More about our weather records

Advertising

Racine Weather History for the Previous 24 Hours

Scroll right to see more
 ConditionsComfort  
Time TempWeatherWind HumidityBarometerVisibility
12:53 PM
Tue, Jul 26
84 °FSunny.7 mph45%30.05 "Hg10 mi
11:53 AM83 °FSunny.5 mph46%30.06 "Hg10 mi
10:53 AM83 °FSunny.6 mph48%30.08 "Hg10 mi
9:53 AM81 °FSunny.6 mph53%30.07 "Hg10 mi
8:53 AM80 °FSunny.5 mph58%30.06 "Hg10 mi
7:53 AM75 °FSunny.5 mph69%30.07 "Hg10 mi
6:53 AM71 °FSunny.6 mph76%30.07 "Hg10 mi
5:53 AM67 °FClear.No wind87%30.06 "Hg10 mi
4:53 AM68 °FClear.6 mph84%30.06 "Hg10 mi
3:53 AM68 °FClear.3 mph84%30.04 "Hg10 mi
2:53 AM68 °FClear.3 mph82%30.03 "Hg10 mi
1:53 AM69 °FClear.3 mph81%30.03 "Hg10 mi
12:53 AM69 °FClear.No wind79%30.03 "Hg10 mi
11:53 PM
Mon, Jul 25
72 °FClear.5 mph68%30.02 "Hg10 mi
10:53 PM72 °FClear.5 mph71%30.02 "Hg10 mi
9:53 PM74 °FClear.3 mph67%30.02 "Hg10 mi
8:53 PM75 °FSunny.3 mph62%30.01 "Hg10 mi
7:53 PM78 °FSunny.5 mph60%30.00 "Hg10 mi
6:53 PM81 °FSunny.7 mph53%29.98 "Hg10 mi
5:53 PM83 °FSunny.7 mph50%29.98 "Hg10 mi
4:53 PM83 °FPassing clouds.7 mph53%29.98 "Hg10 mi
3:53 PM83 °FSunny.8 mph53%29.99 "Hg10 mi
2:53 PM83 °FSunny.8 mph51%29.99 "Hg10 mi
Weather by CustomWeather, © 2016

See weather overviewHow to use our weather pages